Location: Deurze
(52.9838°N, 6.6090°E)
Time: 18:37:40
(UTC+00:00)

Cosmos 1655 Rocket - Pass Details

Date: 11 March 2026
Orbit: 969 x 1006 km, 82.9° (Epoch: 20 April)

Event Time Altitude Azimuth Distance (km) Brightness Sun altitude
Exits shadow 19:44:26 25° 155° (SSE) 1,886 5.1 -20.5°
Maximum altitude 19:47:57 52° 91° (E) 1,232 4.1 -21.0°
Drops below altitude 10° 19:54:08 10° 18° (NNE) 2,795 6.5 -21.9°
Sets 19:56:44 0° 13° (NNE) 3,749 7.2 -22.2°
